www.pogodaiklimat.ru
ПОГОДА в Савунге
Время
(UTC), дата
09:33 16.02
09:39 16.02
09:56 16.02
10:11 16.02
10:33 16.02
10:56 16.02
11:20 16.02
11:56 16.02
12:46 16.02
12:56 16.02
13:07 16.02
13:22 16.02
13:56 16.02
14:19 16.02
14:42 16.02
14:56 16.02
15:16 16.02
15:28 16.02
15:45 16.02
15:56 16.02
16:16 16.02
16:53 16.02
16:56 16.02
17:11 16.02
17:23 16.02
17:42 16.02
17:56 16.02
18:07 16.02
18:25 16.02
18:53 16.02
18:56 16.02
19:04 16.02
19:11 16.02
19:21 16.02
19:56 16.02
20:17 16.02
20:35 16.02
20:42 16.02
20:49 16.02
20:56 16.02
21:29 16.02
21:41 16.02
21:48 16.02
21:56 16.02
22:14 16.02
22:27 16.02
22:56 16.02
23:06 16.02
Ветер
(напр.,м/с)
Видим. Явления Облачность Т
(С)
Тd
(С)
f
(%)
Тe
(С)
Тes
(С)
Комфортность P
(гПа)
Po
(гПа)
Тmin
(С)
Tmax
(С)
R
(мм)
R24
(мм)
S
(см)
В 9 4 км слабый снег, дымка 10/10 450 м -14.0 -16.0 85 -26 -26 1000.7
В 10 5 км слабый снег, дымка 10/10 450 м -14.0 -16.0 85 -26 -26 1000.7
В 9 5 км слабый снег, дымка 10/10 360 м -13.9 -15.6 87 -26 -26 1002.8 1000.7
В 9 4 км слабый снег, дымка 10/10 450 м -14.0 -16.0 85 -26 -26 1000.7
В 10 4 км слабый снег, дымка 10/10 390 м -14.0 -16.0 85 -26 -26 1000.7
В 11 2 км слабый снег, дымка 10/10 390 м -13.9 -15.0 91 -27 -27 1002.7 1000.7 -14.4 -13.9
В 9 3 км слабый снег, дымка 10/10 330 м -13.0 -15.0 85 -25 -25 1000.7
В 10 3 км слабый снег, дымка 10/10 330 м -13.3 -15.0 87 -25 -25 1002.8 1000.7
В 11 2 км слабый снег, дымка 10/10 270 м -13.0 -15.0 85 -25 -25 1000.7
В 9 2 км слабый снег, дымка 10/10 270 м -13.3 -15.0 87 -25 -25 1002.7 1000.7
В 10 2 км слабый снег, дымка 10/10 270 м -13.0 -15.0 85 -25 -25 1000.4
В 10 3 км слабый снег, дымка 10/10 390 м -13.0 -15.0 85 -25 -25 1000.7
В 10 4 км слабый снег, дымка 10/10 330 м -13.3 -15.0 87 -25 -25 1002.6 1000.4
В 10 3 км слабый снег, дымка 10/10 330 м -13.0 -14.0 92 -25 -25 1000.7
В 9 2 км слабый снег, дымка 10/10 270 м -13.0 -14.0 92 -25 -25 1000.4
В 9 2 км слабый снег, дымка 10/10 270 м -12.8 -14.4 88 -24 -24 1002.5 1000.4
В 9 2 км слабый снег, дымка 10/10 270 м -13.0 -14.0 92 -25 -25 1000.4
В 9 2 км слабый снег, дымка 10/10 210 м -13.0 -14.0 92 -25 -25 1000.4
В 9 2 км слабый снег, дымка 10/10 270 м -13.0 -14.0 92 -25 -25 1000.4
В 9 2 км слабый снег, дымка 10/10 270 м -12.8 -13.9 91 -24 -24 1002.6 1000.4
В 9 3 км слабый снег, дымка 10/10 270 м -12.0 -14.0 85 -23 -23 1000.4
В 9 4 км слабый снег, дымка 10/10 510 м -12.0 -14.0 85 -23 -23 1000.4
В 9 4 км слабый снег, дымка 10/10 510 м -12.2 -13.9 87 -24 -24 1002.4 1000.4 -13.9 -12.2
В 8 2 км слабый снег, дымка 10/10 450 м -12.0 -14.0 85 -23 -23 1000.4
В 9 3 км слабый снег, дымка 10/10 420 м -12.0 -14.0 85 -23 -23 1000.4
В 8 2 км слабый снег, дымка 10/10 480 м -12.0 -14.0 85 -22 -22 1000.7
В 7 2 км слабый снег, дымка 10/10 480 м -12.2 -13.3 91 -22 -22 1002.7 1000.7
В 7 2 км слабый снег, дымка 10/10 510 м -12.0 -13.0 92 -22 -22 1000.7
В 8 2 км слабый снег, дымка 10/10 510 м -12.0 -13.0 92 -22 -22 1000.7
В 8 5 км слабый снег, дымка 10/10 540 м -12.0 -13.0 92 -23 -23 1000.7
В 9 6 км слабый снег, дымка 10/10 540 м -11.7 -13.3 88 -23 -23 1002.6 1000.7
В 9 4 км слабый снег, дымка 10/10 540 м -12.0 -13.0 92 -23 -23 1000.7
В 8 5 км слабый снег, дымка 10/10 720 м -12.0 -13.0 92 -23 -23 1000.7
В 9 8 км слабый снег, дымка 10/10 630 м -12.0 -13.0 92 -23 -23 1000.7
В 8 5 км слабый снег, дымка 10/10 360 м -11.1 -12.8 87 -21 -21 1003.2 1001.0
В 9 3 км слабый снег, дымка 10/10 360 м -11.0 -13.0 85 -22 -22 1001.0
В 8 3 км слабый снег, дымка 10/10 210 м -11.0 -12.0 92 -22 -22 1001.4
В 9 2 км слабый снег, дымка 10/10 210 м -11.0 -12.0 92 -22 -22 1001.4
В 9 1 км слабый снег, дымка 10/10 210 м -11.0 -12.0 92 -22 -22 1001.4
В 9 1 км слабый снег, дымка 10/10 210 м -10.6 -12.2 88 -22 -22 1003.3 1001.4
В 9 2 км слабый снег, дымка 10/10 210 м -11.0 -12.0 92 -22 -22 1001.4
В 9 2 км слабый снег, дымка 10/10 210 м -11.0 -12.0 92 -22 -22 1001.4
В 10 1 км слабый снег, дымка 10/10 600 м -11.0 -12.0 92 -22 -22 1001.4
В 9 2 км слабый снег, дымка 10/10 270 м -10.6 -11.7 92 -22 -22 1003.4 1001.4
В 9 2 км слабый снег, дымка 10/10 270 м -11.0 -12.0 92 -22 -22 1001.4
В 9 2 км слабый снег, дымка 10/10 210 м -10.0 -12.0 85 -21 -21 1001.4
В 7 2 км слабый снег, дымка 10/10 210 м -10.0 -11.1 92 -20 -20 1003.5 1001.4 -12.2 -10.0
СВ 8 2 км слабый снег, дымка 10/10 150 м -10.0 -11.0 92 -20 -20 1001.4
Местоположение метеостанции Savoonga Airport: широта 63.6833 долгота -170.5000 высота над уровнем моря 16 м.
В архиве по умолчанию представлена погода в Савунге за последние 1-2 суток. Обновление информации о фактической погоде в базе происходит ежечасно! Архивные данные за месяц целиком и за предыдущие месяцы Вы можете получить, выбрав интересующий диапазон дат из раскрывающегося списка и нажав кнопку "Ввод!".
Внимание! Архив погоды МЕТАР в базе сайта по станциям, не включенным в климатический монитор, хранится не более 60 дней. Нет смысла пытаться выбрать более раннюю дату.
*Определитесь, кто Вы:
Внимание! Время в таблицах - всемирное. Для получения местного времени необходимо прибавить поправку, которая равна ч.
Смотрите также архив погоды в соседних городах и на ближайших метеорологических станциях:
Партнеры нашего сайта:      
Пояснения к столбцам:
  • Ветер - указаны скорость ветра в м/с - средняя за 10 мин, порывы в срок и между сроками (в фигурных скобках) и направление, откуда дует ветер: С - северный,
  • СВ - северо-восточный, В - восточный, ЮВ - юго-восточный, Ю - южный, ЮЗ - юго-западный, З - западный, СЗ - северо-западный.
  • Видимость - горизонтальная дальность видимости в метрах или километрах. При видимости от 1 до 10 км при отсутствии осадков обычно наблюдается дымка, при ухудшении видимости до 1 км и менее - туман. В сухую погоду видимость может ухудшаться дымом, пылью или мглою.
  • Явления - указаны атмосферные явления, наблюдавшиеся в срок или в последний час перед сроком; фигурными скобками обозначены явления, наблюдавшиеся между сроками (за 1-3 часа до срока); квадратными скобками обозначены град или гололедные отложения с указанием их диаметра в мм.
  • Облачность - указаны через наклонную черту общая и нижняя облачность в баллах и высота нижней границы облаков в метрах; квадратными скобками обозначены формы облаков: Ci - перистые, Cs - перисто-слоистые, Cc - перисто-кучевые, Ac - высококучевые, As - высокослоистые, Sc - слоисто-кучевые, Ns - слоисто-дождевые, Cu - кучевые, Cb - кучево-дождевые. Подробнее классификацию облаков см. в Атласе облаков (PDF).
  • T - Температура воздуха - температура, измеренная на высоте 2 м над землей.
  • Td - Температура точки росы - температура, при понижении до которой содержащийся в воздухе водяной пар достигнет насыщения.
  • f - Относительная влажность воздуха - влажноcть воздуха, измеренная на высоте 2 м над землей.
  • Te - Эффективная температура - температура, которую ощущает одетый по сезону человек в тени. Характеристика душности погоды. При расчете учитывается влияние влажности воздуха и скорости ветра на теплоощущения человека.
  • Tes - Эффективная температура на солнце - температура, которую ощущает человек, с поправкой на солнечный нагрев. Характеристика знойности погоды. Зависит от высоты солнца над горизонтом, облачности и скорости ветра. Ночью, в пасмурную погоду, а также при ветре 12 м/с и более поправка равна нулю.
  • P - Атмосферное давление - приведенное к уровню моря атмосферное давление.
  • Po - Атмосферное давление - измеренное на уровне метеостанции атмосферное давление.
  • Tmin - Минимальная температура - минимум температуры воздуха на высоте 2 м над землей.
  • Tmax - Максимальная температура - максимум температуры воздуха на высоте 2 м над землей.
  • R - Количество осадков - Количество выпавших осадков за период времени, мм. При наведении курсора мыши на число - период времени, за который выпало указанное количество осадков.
  • R24 - Количество осадков - Количество выпавших осадков за 24 часа, мм.
  • S - Снежный покров - Высота снежного покрова, см. При наведении курсора мыши на число - состояние снежного покрова и степень покрытия местности в баллах.